Location: Basse Occidentale du Courleau
(48.3833°N, 4.8333°W)
Time: 09:02:44
(UTC+00:00)

NOSS 3-3 (C) - Pass Details

Date: 05 July 2020
Orbit: 824 x 1388 km, 63.4° (Epoch: 03 August)

Event Time Altitude Azimuth Distance (km) Brightness Sun altitude
Rises 22:14:56 0° 212° (SSW) 3,407 6.6 -13.3°
Reaches altitude 10° 22:17:17 10° 211° (SSW) 2,515 5.9 -13.5°
Maximum altitude 22:23:04 75° 127° (SE) 977 3.9 -14.0°
Drops below altitude 10° 22:29:41 10° 43° (NE) 2,856 6.7 -14.5°
Sets 22:32:30 0° 42° (NE) 3,901 7.4 -14.7°
